Flag for Chile Weather past 2 weeks in Santiago, Chile

Now
88 °F

Sunny.


Feels Like: 84 °F
Forecast: 56 / 87 °F
Wind: 16 mph from Southwest

Location: Pudahuel

Current Time: Oct 25, 2014 at 5:10:45 PM

Latest Report: Oct 25, 2014 at 4:00 PM


Visibility: 10 mi

Pressure: 29.83 "Hg

Humidity: 21%

Dew point: 43 °F

Location of SantiagoLocation

Historic Weather in Santiago — Graph

°F

Santiago temperature yesterday

Maximum temperature yesterday: 90 °F (at 5:00 PM)
Minimum temperature yesterday: 54 °F (at 7:00 AM)
Average temperature yesterday: 73 °F

Past Weeks' High & Low Weather Summary

 TemperatureHumidityPressure
High90 °F (Oct 24, 5:00 PM)88% (Oct 22, 7:00 AM)30.15 "Hg (Oct 22, 7:00 AM)
Low39 °F (Oct 11, 6:00 AM)13% (Oct 12, 4:00 PM)29.83 "Hg (Oct 25, 3:00 PM)
Average65 °F47%30.00 "Hg
* Reported Oct 10 4:00 PM — Oct 25 4:00 PM, Santiago, Weather by CustomWeather, © 2014

Note: Actual official high and low records may vary slightly from our data, if they occured in-between our weather recording intervals... More about our weather records

Advertising

Santiago weather history for previous 24 hours

 ConditionsComfort  
Time TempWeatherWind HumidityBarometerVisibility
4:00 PM
Oct 25
88 °FSunny.16 mph21%29.83 "Hg10 mi
3:00 PM88 °FPassing clouds.15 mph19%29.83 "HgN/A
2:00 PM88 °FPassing clouds.12 mph19%29.86 "HgN/A
1:00 PM84 °FPassing clouds.10 mph27%29.86 "HgN/A
12:00 PM79 °FPassing clouds.6 mph30%29.89 "HgN/A
11:00 AM77 °FSunny.3 mph32%29.89 "Hg10 mi
10:00 AM72 °FSunny.2 mph41%29.89 "Hg10 mi
9:00 AM66 °FSunny.2 mph46%29.89 "Hg10 mi
8:00 AM59 °FClear.2 mph59%29.89 "Hg5 mi
7:00 AM57 °FClear.3 mph63%29.86 "Hg5 mi
6:00 AM55 °FClear.2 mph63%29.86 "Hg5 mi
5:00 AM59 °FClear.1 mph55%29.86 "Hg10 mi
4:00 AM59 °FClear.3 mph59%29.86 "Hg10 mi
3:00 AM63 °FClear.3 mph52%29.89 "Hg10 mi
2:00 AM68 °FClear.6 mph38%29.89 "Hg10 mi
1:00 AM70 °FClear.7 mph35%29.92 "Hg10 mi
12:00 AM73 °FClear.12 mph33%29.92 "Hg10 mi
11:00 PM
Oct 24
75 °FClear.9 mph34%29.92 "Hg10 mi
10:00 PM75 °FClear.6 mph34%29.95 "Hg10 mi
9:00 PM79 °FClear.13 mph28%29.92 "Hg10 mi
8:00 PM82 °FSunny.15 mph25%29.92 "Hg10 mi
7:00 PM86 °FPassing clouds.16 mph20%29.92 "HgN/A
6:00 PM88 °FPassing clouds.15 mph21%29.92 "HgN/A
5:00 PM90 °FPassing clouds.14 mph22%29.92 "HgN/A
Weather by CustomWeather, © 2014

See weather overviewHow to use our weather pages